Location: Barruelo
(41.2448°N, 3.8231°W)
Time: 11:04:37
(UTC+00:00)

BlueWalker 3 - Visible Passes

Search period start: 15 March 2026 00:00
Search period end: 25 March 2026 00:00
Orbit: 451 x 457 km, 53.2° (Epoch: 14 March)

Date Brightness Start Highest point End Pass type
(mag) Time Alt. Az. Time Alt. Az. Time Alt. Az.
15 Mar 4.8 03:38:53 14° NE 03:38:53 14° NE 03:39:56 10° NE visible
15 Mar 2.4 05:12:35 13° NW 05:15:42 55° NE 05:19:13 10° ESE visible
16 Mar 2.8 04:38:07 29° NNW 04:39:29 42° NNE 04:42:54 10° ESE visible
17 Mar 3.5 04:03:49 31° NE 04:03:49 31° NE 04:06:32 10° E visible
17 Mar 2.5 05:37:32 11° WNW 05:40:38 32° SW 05:43:51 10° SSE visible
18 Mar 5.0 03:29:42 12° E 03:29:42 12° E 03:30:05 10° E visible
18 Mar 2.1 05:03:26 33° W 05:04:29 44° SW 05:07:54 10° SSE visible
19 Mar 2.8 04:29:34 35° SSE 04:29:34 35° SSE 04:31:50 10° SE visible
20 Mar 4.5 20:39:33 10° SW 20:39:43 11° SW 20:39:43 11° SW visible
21 Mar 2.2 20:03:26 10° SSW 20:06:19 43° SSE 20:06:19 43° SSE visible
22 Mar 2.4 19:27:25 10° SSW 19:30:42 35° SE 19:32:42 19° E visible
22 Mar 4.2 21:04:52 10° W 21:06:26 21° WNW 21:06:26 21° WNW visible
23 Mar 2.9 20:28:24 10° WSW 20:31:49 40° NNW 20:32:33 35° N visible
24 Mar 2.5 19:52:00 10° WSW 19:55:29 51° NW 19:58:24 14° NE visible
24 Mar 5.0 21:31:20 10° NW 21:32:07 13° NW 21:32:07 13° NW visible
